KE5FVT Weather Reports


Display with metric or nautical units.
time (UTC)temp
F
wind
direction
speed
MPH
gust
MPH
rain 1hr
in
rain 24hr
in
rain mn
in
humidity
%
barometer
mb
20200225220023 68 136 4.0 10.0 0.00 1.42 1.21 95 1011.0
20200225215516 68 148 5.0 10.0 0.00 1.42 1.21 95 1010.9
20200225215020 68 158 2.0 6.0 0.00 1.42 1.21 95 1011.0
20200225214520 68 180 2.0 8.0 0.00 1.42 1.21 95 1011.2
20200225214007 68 222 3.0 8.0 0.00 1.42 1.21 94 1011.2
20200225213506 68 169 4.0 8.0 0.00 1.42 1.21 94 1011.1
20200225213005 68 150 2.0 7.0 0.00 1.42 1.21 94 1010.9
20200225212505 68 164 3.0 9.0 0.00 1.42 1.21 94 1010.6
20200225212005 69 150 3.0 9.0 0.00 1.42 1.21 93 1010.4
20200225211503 69 223 5.0 8.0 0.00 1.42 1.21 93 1010.8
20200225211005 69 180 3.0 8.0 0.00 1.42 1.21 93 1010.6
20200225210502 69 205 1.0 11.0 0.00 1.42 1.21 93 1010.7
20200225210002 69 190 2.0 7.0 0.00 1.42 1.21 93 1010.5
20200225205600 69 140 4.0 7.0 0.00 1.42 1.21 93 1010.5
20200225205059 69 187 2.0 5.0 0.00 1.42 1.21 93 1010.6
20200225204635 69 132 2.0 6.0 0.00 1.42 1.21 93 1010.5
20200225204055 69 183 1.0 6.0 0.00 1.42 1.21 93 1010.5
20200225203554 69 223 3.0 8.0 0.00 1.42 1.21 93 1010.5
20200225203110 69 169 4.0 9.0 0.00 1.42 1.21 92 1010.6
20200225202601 69 166 4.0 9.0 0.00 1.42 1.21 92 1010.4
20200225202128 70 164 4.0 7.0 0.00 1.42 1.21 91 1010.5
20200225201623 70 147 1.0 7.0 0.00 1.42 1.21 91 1010.5
20200225201046 70 138 3.0 7.0 0.00 1.42 1.21 91 1010.6
20200225200545 70 189 3.0 12.0 0.00 1.42 1.21 91 1010.5
20200225200129 70 143 5.0 10.0 0.00 1.42 1.21 91 1010.4
20200225195542 70 176 5.0 10.0 0.00 1.42 1.21 91 1010.5
20200225195101 71 153 6.0 10.0 0.00 1.42 1.21 90 1010.5
20200225194547 71 146 5.0 10.0 0.00 1.42 1.21 89 1010.7
20200225194037 71 144 5.0 11.0 0.00 1.42 1.21 89 1010.7
20200225193536 72 132 5.0 11.0 0.00 1.42 1.21 89 1010.8
20200225193055 71 162 2.0 11.0 0.00 1.42 1.21 89 1010.7
20200225192533 71 127 4.0 10.0 0.00 1.42 1.21 89 1010.9
20200225192033 71 182 4.0 11.0 0.00 1.42 1.21 89 1011.1
20200225191632 72 132 6.0 12.0 0.00 1.42 1.21 88 1010.8
20200225191032 72 133 5.0 9.0 0.00 1.42 1.21 87 1010.9
20200225190530 72 129 4.0 8.0 0.00 1.42 1.21 87 1010.7
20200225190032 72 145 2.0 7.0 0.00 1.42 1.21 87 1010.8
20200225185542 72 202 3.0 8.0 0.00 1.42 1.21 88 1010.8
20200225185027 72 123 2.0 8.0 0.00 1.42 1.21 87 1010.8
20200225184547 72 137 2.0 8.0 0.00 1.42 1.21 88 1011.0
20200225184031 72 142 4.0 8.0 0.00 1.42 1.21 88 1011.0
20200225183532 72 142 3.0 11.0 0.00 1.42 1.21 88 1011.1
20200225183045 72 117 5.0 11.0 0.00 1.42 1.21 88 1011.2
20200225182527 71 143 4.0 8.0 0.00 1.42 1.21 90 1011.3
20200225182020 70 195 2.0 10.0 0.00 1.42 1.21 90 1011.2
20200225181529 70 127 4.0 10.0 0.00 1.42 1.21 90 1011.5
20200225181019 71 155 5.0 8.0 0.00 1.42 1.21 90 1011.5
20200225180523 71 195 2.0 9.0 0.00 1.42 1.21 89 1011.6
20200225180053 71 128 4.0 9.0 0.00 1.42 1.21 89 1011.7
20200225175518 71 232 2.0 7.0 0.00 1.42 1.21 89 1011.6
20200225175021 71 217 4.0 9.0 0.00 1.42 1.21 90 1011.5
20200225174521 71 130 5.0 9.0 0.00 1.42 1.21 90 1011.6
20200225174018 71 190 3.0 7.0 0.00 1.42 1.21 90 1011.5
20200225173516 71 173 3.0 9.0 0.00 1.42 1.21 91 1011.6
20200225172515 71 126 5.0 11.0 0.00 1.42 1.21 90 1011.7
20200225172013 70 153 3.0 5.0 0.00 1.42 1.21 91 1011.8
20200225171518 70 157 1.0 6.0 0.00 1.42 1.21 92 1011.9
20200225171014 70 176 3.0 8.0 0.00 1.42 1.21 92 1012.0
20200225170510 69 153 3.0 8.0 0.00 1.42 1.21 93 1012.1
20200225170010 69 155 4.0 8.0 0.00 1.42 1.21 93 1012.2
20200225165515 69 146 4.0 8.0 0.00 1.42 1.21 93 1012.3
20200225165019 69 149 3.0 10.0 0.00 1.42 1.21 94 1012.4
20200225164515 69 175 4.0 10.0 0.00 1.42 1.21 94 1012.5
20200225164008 68 138 5.0 11.0 0.00 1.42 1.21 94 1012.6
20200225163510 68 157 5.0 11.0 0.00 1.42 1.21 94 1012.6
20200225163039 68 135 6.0 11.0 0.00 1.42 1.21 94 1012.6
20200225162507 68 179 4.0 11.0 0.00 1.42 1.21 93 1012.6
20200225162010 69 158 3.0 10.0 0.00 1.42 1.21 93 1012.7
20200225161507 68 150 4.0 10.0 0.00 1.42 1.21 93 1012.6
20200225161005 68 151 3.0 9.0 0.00 1.42 1.21 95 1012.5
20200225160516 67 147 4.0 10.0 0.00 1.42 1.21 95 1012.5
20200225160006 67 186 4.0 9.0 0.00 1.42 1.21 95 1012.6
20200225155506 67 140 4.0 8.0 0.00 1.42 1.21 95 1012.6
20200225155012 67 142 3.0 8.0 0.00 1.42 1.21 95 1012.7
20200225154514 67 134 4.0 8.0 0.00 1.42 1.21 95 1012.5
20200225154009 67 141 2.0 8.0 0.00 1.42 1.21 95 1012.5
20200225153505 67 134 5.0 10.0 0.00 1.42 1.21 95 1012.5
20200225153030 67 153 3.0 8.0 0.00 1.42 1.21 96 1012.5
20200225152504 67 163 1.0 7.0 0.00 1.42 1.21 96 1012.4
20200225151505 67 157 2.0 7.0 0.00 1.42 1.21 97 1012.4
20200225151003 66 136 2.0 7.0 0.00 1.42 1.21 97 1012.5
20200225150502 66 125 3.0 5.0 0.00 1.42 1.21 97 1012.5
20200225150004 66 150 3.0 5.0 0.00 1.42 1.21 97 1012.5
20200225145502 66 125 1.0 6.0 0.00 1.42 1.21 97 1012.6
20200225145002 66 140 3.0 6.0 0.00 1.42 1.21 97 1012.6
20200225144507 66 154 2.0 6.0 0.00 1.42 1.21 97 1012.5
20200225144002 66 150 3.0 6.0 0.00 1.42 1.21 97 1012.5
20200225143506 65 129 2.0 4.0 0.00 1.42 1.21 97 1012.3
20200225143002 65 149 2.0 3.0 0.00 1.42 1.21 97 1012.3
20200225142502 65 121 1.0 5.0 0.00 1.42 1.21 97 1012.2
20200225142100 65 163 2.0 6.0 0.00 1.42 1.21 97 1012.2
20200225141629 65 123 2.0 7.0 0.00 1.42 1.21 97 1012.1
20200225141100 65 153 4.0 7.0 0.00 1.42 1.21 97 1012.2
20200225140649 65 148 3.0 6.0 0.00 1.42 1.21 97 1011.9
20200225140239 65 80 1.0 3.0 0.00 1.42 1.21 97 1012.0
20200225135605 65 105 1.0 5.0 0.00 1.42 1.21 97 1011.9
20200225135100 64 120 2.0 5.0 0.00 1.42 1.21 97 1012.1
20200225134637 64 104 1.0 5.0 0.00 1.42 1.21 97 1012.1
20200225134100 64 84 2.0 5.0 0.00 1.42 1.21 97 1012.0
20200225133600 64 146 1.0 6.0 0.00 1.42 1.21 97 1012.0
20200225133307 64 111 1.0 6.0 0.00 1.42 1.21 97 1011.9
20200225132559 64 126 2.0 5.0 0.00 1.42 1.21 97 1011.8
20200225132059 64 123 3.0 5.0 0.00 1.42 1.21 97 1011.9
20200225131614 64 134 1.0 4.0 0.00 1.42 1.21 97 1012.0
20200225131058 63 131 0.0 4.0 0.00 1.42 1.21 97 1011.9
20200225130559 63 119 1.0 4.0 0.00 1.42 1.21 97 1012.0
20200225130230 63 127 1.0 4.0 0.00 1.42 1.21 97 1011.9
20200225125603 63 146 1.0 4.0 0.00 1.42 1.21 97 1012.0
20200225125058 63 178 1.0 3.0 0.00 1.42 1.21 97 1012.0
20200225124737 63 146 1.0 4.0 0.00 1.42 1.21 97 1011.8
20200225124112 63 131 0.0 4.0 0.00 1.42 1.21 97 1011.7
20200225123609 63 133 1.0 4.0 0.00 1.42 1.21 97 1011.6
20200225123139 63 132 1.0 3.0 0.00 1.42 1.21 97 1011.9
20200225122624 63 150 2.0 4.0 0.00 1.42 1.21 97 1012.0
20200225122109 63 128 1.0 5.0 0.00 1.42 1.21 97 1011.9
20200225121744 63 154 1.0 4.0 0.00 1.42 1.21 97 1011.9
20200225121056 63 118 1.0 4.0 0.00 1.42 1.21 97 1011.9
20200225120602 63 119 1.0 5.0 0.00 1.42 1.21 97 1011.6
20200225120207 63 144 2.0 4.0 0.00 1.42 1.21 97 1011.8
20200225115555 63 126 2.0 4.0 0.00 1.42 1.21 97 1011.8
20200225115105 63 80 0.0 4.0 0.00 1.42 1.21 97 1011.8
20200225114639 63 124 1.0 5.0 0.00 1.42 1.21 97 1011.9
20200225114101 63 123 0.0 5.0 0.00 1.42 1.21 97 1011.8
20200225113556 63 128 0.0 3.0 0.00 1.42 1.21 97 1011.5
20200225113118 63 48 0.0 3.0 0.00 1.42 1.21 97 1011.5
20200225112604 63 130 0.0 3.0 0.00 1.42 1.21 97 1011.4
20200225112105 63 132 0.0 3.0 0.00 1.42 1.21 97 1011.8
20200225111630 63 132 0.0 3.0 0.00 1.42 1.21 97 1012.0
20200225111056 63 132 0.0 4.0 0.00 1.42 1.21 97 1011.9
20200225110554 63 127 1.0 4.0 0.00 1.42 1.21 97 1011.4
20200225110211 63 135 1.0 4.0 0.00 1.42 1.21 97 1011.5
20200225105553 63 128 0.0 3.0 0.00 1.42 1.21 97 1011.7
20200225105054 63 126 1.0 3.0 0.00 1.42 1.21 97 1011.7
20200225104650 63 130 1.0 3.0 0.00 1.42 1.21 97 1011.7
20200225104101 63 126 0.0 3.0 0.00 1.42 1.21 97 1011.6
20200225103604 63 126 0.0 3.0 0.00 1.42 1.21 97 1011.6
20200225103232 63 127 1.0 7.0 0.00 1.42 1.21 97 1011.6
20200225102555 63 111 1.0 5.0 0.00 1.42 1.21 97 1011.5
20200225102052 63 53 1.0 6.0 0.00 1.42 1.21 97 1011.3
20200225101649 63 121 1.0 6.0 0.00 1.42 1.21 97 1011.3
20200225100144 63 109 1.0 5.0 0.00 1.42 1.21 97 1011.4
20200225095554 63 127 1.0 5.0 0.00 1.42 1.21 97 1011.6
20200225095105 63 142 1.0 4.0 0.00 1.42 1.21 97 1011.5
20200225094620 63 136 1.0 4.0 0.00 1.42 1.21 97 1011.2
20200225094051 63 57 1.0 6.0 0.01 1.42 1.21 97 1011.2
20200225093551 63 119 1.0 6.0 0.01 1.42 1.21 97 1011.3
20200225093126 63 80 1.0 3.0 0.01 1.42 1.21 97 1011.5
20200225092549 63 78 1.0 3.0 0.01 1.42 1.21 97 1011.5
20200225092050 63 60 0.0 3.0 0.02 1.42 1.21 97 1011.4
20200225091044 63 71 1.0 3.0 0.10 1.42 1.21 97 1011.4
20200225090608 63 74 0.0 3.0 0.11 1.42 1.21 97 1011.5
20200225090148 63 53 1.0 3.0 0.12 1.42 1.21 96 1011.4
20200225085544 63 66 1.0 3.0 0.14 1.42 1.21 96 1011.3
20200225085052 63 63 0.0 0.0 0.17 1.42 1.21 96 1011.6
20200225084552 63 63 0.0 0.0 0.22 1.42 1.21 96 1011.9
20200225084049 63 63 0.0 0.0 0.43 1.41 1.20 96 1011.9
20200225083503 63 63 0.0 0.0 0.57 1.41 1.20 96 1012.1
20200225083004 63 63 0.0 0.0 0.63 1.41 1.20 96 1012.1
20200225082505 63 63 0.0 0.0 0.67 1.41 1.20 96 1012.0
20200225082002 63 63 0.0 0.0 0.69 1.40 1.19 96 1012.2
20200225081502 63 63 0.0 0.0 0.66 1.37 1.15 96 1012.2
20200225081006 63 63 0.0 1.0 0.61 1.32 1.11 96 1012.3
20200225080504 63 63 0.0 5.0 0.61 1.31 1.10 96 1012.2
20200225080005 63 59 1.0 5.0 0.62 1.30 1.09 96 1012.2
20200225075105 63 51 2.0 4.0 0.70 1.26 1.05 96 1012.4
20200225074654 64 71 1.0 5.0 0.73 1.21 1.00 95 1012.6
20200225074059 64 19 3.0 5.0 0.56 0.98 0.77 95 1012.9
20200225073557 64 296 3.0 4.0 0.55 0.83 0.62 95 1012.5
20200225073112 64 284 2.0 4.0 0.56 0.78 0.56 95 1012.2
20200225072557 64 177 2.0 10.0 0.53 0.74 0.53 95 1011.9
20200225072056 64 197 3.0 9.0 0.50 0.71 0.50 95 1012.0
20200225071634 64 124 4.0 12.0 0.50 0.71 0.50 95 1011.7
20200225071055 64 34 9.0 12.0 0.50 0.71 0.50 95 1011.2
20200225070554 64 43 0.0 9.0 0.49 0.70 0.49 95 1012.3
20200225070142 64 43 1.0 9.0 0.47 0.68 0.47 95 1012.1
20200225065553 64 21 3.0 4.0 0.43 0.64 0.43 95 1012.2
20200225064635 64 117 2.0 4.0 0.27 0.48 0.27 94 1011.8
20200225064050 65 41 2.0 4.0 0.18 0.39 0.18 93 1011.9
20200225063547 65 328 1.0 5.0 0.06 0.27 0.06 92 1012.3
20200225063215 66 346 2.0 8.0 0.00 0.21 0.00 90 1012.2
20200225062544 67 350 3.0 8.0 0.00 0.21 0.00 91 1012.1
20200225062106 68 204 3.0 11.0 0.00 0.21 0.00 91 1012.2
20200225061626 68 338 2.0 12.0 0.00 0.21 0.00 90 1012.2
20200225061047 68 205 1.0 16.0 0.00 0.21 0.00 90 1012.2
20200225060557 68 236 4.0 16.0 0.00 0.21 0.00 90 1012.0
20200225060055 68 156 5.0 18.0 0.00 0.21 0.00 90 1012.0
20200225055546 68 217 5.0 18.0 0.00 0.21 0.00 90 1011.7
20200225055043 68 173 4.0 15.0 0.00 0.21 0.00 90 1011.8
20200225054546 68 248 6.0 19.0 0.00 0.21 0.00 89 1011.6
20200225054046 68 236 8.0 19.0 0.00 0.21 0.00 89 1011.7
20200225053546 68 144 7.0 19.0 0.00 0.21 0.00 89 1011.6
20200225053145 68 101 4.0 16.0 0.00 0.21 0.00 89 1011.7
20200225052538 68 202 6.0 16.0 0.00 0.21 0.00 89 1011.8
20200225052040 67 177 5.0 13.0 0.00 0.21 0.00 90 1011.9
20200225051624 67 214 6.0 14.0 0.00 0.21 0.00 90 1011.8
20200225051040 67 138 4.0 14.0 0.00 0.21 0.00 90 1012.0
20200225050534 67 155 5.0 10.0 0.01 0.21 0.00 90 1012.0
20200225050110 67 146 4.0 16.0 0.01 0.21 0.00 90 1011.9
20200225045538 67 239 7.0 16.0 0.01 0.21 0.21 91 1011.9
20200225045036 67 196 4.0 11.0 0.01 0.21 0.21 91 1012.0
20200225044617 67 202 5.0 11.0 0.01 0.21 0.21 91 1012.0
20200225044027 66 188 5.0 14.0 0.01 0.21 0.21 91 1011.7
20200225043533 66 161 6.0 14.0 0.01 0.21 0.21 91 1011.6
20200225043052 66 188 3.0 11.0 0.01 0.21 0.21 92 1011.8
20200225042547 66 181 4.0 13.0 0.01 0.21 0.21 92 1011.7
20200225042020 66 219 4.0 19.0 0.01 0.21 0.21 92 1011.9
20200225041525 66 140 6.0 19.0 0.01 0.21 0.21 92 1011.8
20200225041018 65 161 6.0 16.0 0.00 0.20 0.20 93 1011.9
20200225040516 65 136 4.0 10.0 0.00 0.20 0.20 93 1012.1
20200225040025 65 154 5.0 9.0 0.00 0.20 0.20 93 1012.1
20200225035514 64 222 3.0 10.0 0.00 0.20 0.20 94 1012.3
20200225035021 64 150 3.0 10.0 0.00 0.20 0.20 94 1012.4
20200225034511 64 157 3.0 10.0 0.00 0.20 0.20 94 1012.5
20200225034009 64 165 4.0 11.0 0.00 0.20 0.20 94 1012.6
20200225033507 64 145 4.0 9.0 0.00 0.20 0.20 94 1012.7
20200225033011 64 194 2.0 6.0 0.04 0.20 0.20 94 1012.8
20200225032505 64 212 1.0 10.0 0.04 0.20 0.20 93 1012.9
20200225032005 64 153 3.0 14.0 0.05 0.20 0.20 93 1012.8
20200225031502 64 150 5.0 14.0 0.10 0.20 0.20 93 1012.8
20200225031002 64 177 2.0 12.0 0.16 0.20 0.20 92 1012.8
20200225030504 64 126 5.0 17.0 0.19 0.20 0.20 92 1012.8
20200225025501 63 132 10.0 15.0 0.20 0.20 0.20 93 1012.7
20200225025010 63 152 8.0 13.0 0.20 0.20 0.20 94 1012.7
20200225024635 63 211 3.0 12.0 0.20 0.20 0.20 94 1013.3
20200225024100 63 276 3.0 16.0 0.20 0.20 0.20 93 1013.1
20200225023602 63 157 6.0 16.0 0.20 0.20 0.20 93 1012.9
20200225023223 63 118 4.0 11.0 0.16 0.16 0.16 93 1013.3
20200225022609 63 147 4.0 16.0 0.16 0.16 0.16 93 1013.1
20200225022105 64 148 6.0 14.0 0.15 0.15 0.15 93 1013.1
20200225021623 64 139 5.0 14.0 0.10 0.10 0.10 93 1013.2
20200225021057 63 147 7.0 15.0 0.04 0.04 0.04 93 1013.4
20200225020603 63 141 6.0 15.0 0.01 0.01 0.01 92 1013.2
20200225020305 63 167 3.0 10.0 0.00 0.00 0.00 91 1013.4
20200225015557 63 150 5.0 10.0 0.00 0.00 0.00 91 1013.2
20200225015058 63 161 2.0 10.0 0.00 0.00 0.00 90 1013.2
20200225014739 64 161 3.0 9.0 0.00 0.00 0.00 90 1012.7
20200225014056 64 144 5.0 9.0 0.00 0.00 0.00 89 1013.1
20200225013556 64 175 5.0 9.0 0.00 0.00 0.00 90 1013.0
20200225013232 63 172 4.0 7.0 0.00 0.00 0.00 90 1013.1
20200225012603 63 146 3.0 11.0 0.00 0.00 0.00 90 1012.9
20200225012057 63 155 3.0 11.0 0.00 0.00 0.00 89 1012.9
20200225011749 63 140 3.0 10.0 0.00 0.00 0.00 89 1013.0
20200225011104 63 164 6.0 10.0 0.00 0.00 0.00 89 1013.0
20200225010555 63 128 4.0 9.0 0.00 0.00 0.00 89 1013.2
20200225010209 63 163 3.0 7.0 0.00 0.00 0.00 89 1013.2
20200225005557 63 132 2.0 5.0 0.00 0.00 0.00 89 1013.3
20200225005056 63 144 2.0 5.0 0.00 0.00 0.00 89 1013.4
20200225004637 63 167 2.0 11.0 0.00 0.00 0.00 89 1013.3
20200225003553 63 180 6.0 10.0 0.00 0.00 0.00 89 1013.1
20200225003242 63 360 5.0 9.0 0.00 0.00 0.00 89 1013.2
20200225002558 63 124 3.0 12.0 0.00 0.00 0.00 89 1013.3
20200225002052 64 173 3.0 12.0 0.00 0.00 0.00 88 1013.2
20200225001737 64 209 4.0 9.0 0.00 0.00 0.00 88 1013.1
20200225001051 64 157 3.0 9.0 0.00 0.00 0.00 88 1013.2
20200225000556 64 215 5.0 12.0 0.00 0.00 0.00 88 1013.2
20200225000111 64 131 4.0 12.0 0.00 0.00 0.00 87 1013.5
20200224235551 64 157 4.0 11.0 0.00 0.00 0.00 86 1013.4
20200224235111 64 146 4.0 14.0 0.00 0.00 0.00 86 1013.1
20200224234630 64 111 8.0 14.0 0.00 0.00 0.00 86 1013.0
20200224234101 64 168 4.0 9.0 0.00 0.00 0.00 86 1013.2
20200224233556 64 118 2.0 8.0 0.00 0.00 0.00 86 1013.3
20200224233132 64 213 5.0 15.0 0.00 0.00 0.00 86 1013.2
20200224232604 64 171 5.0 15.0 0.00 0.00 0.00 86 1013.2
20200224232052 64 135 4.0 12.0 0.00 0.00 0.00 86 1013.4
20200224231710 65 144 7.0 12.0 0.00 0.00 0.00 85 1013.1
20200224231048 65 168 4.0 9.0 0.00 0.00 0.00 85 1013.2
20200224230606 65 174 2.0 6.0 0.00 0.00 0.00 85 1013.3
20200224230204 65 135 2.0 9.0 0.00 0.00 0.00 84 1013.2
20200224225549 65 172 4.0 10.0 0.00 0.00 0.00 84 1013.3
20200224225047 65 151 4.0 10.0 0.00 0.00 0.00 83 1013.4
20200224224645 65 180 4.0 9.0 0.00 0.00 0.00 83 1013.5
20200224224046 65 146 2.0 8.0 0.00 0.00 0.00 83 1013.4
20200224223549 65 179 3.0 10.0 0.00 0.00 0.00 83 1013.5
20200224223135 65 173 3.0 10.0 0.00 0.00 0.00 83 1013.5
20200224222544 65 152 6.0 11.0 0.00 0.00 0.00 83 1013.6
20200224222043 66 153 5.0 12.0 0.00 0.00 0.00 82 1013.7
20200224221557 66 208 5.0 12.0 0.00 0.00 0.00 82 1013.8
20200224221042 66 190 4.0 10.0 0.00 0.00 0.00 82 1013.8
20200224220546 66 188 5.0 9.0 0.00 0.00 0.00 82 1013.8